Theta_e
323 331 333 331 330 328 327 326 326 325 326 325 325 327 326 326 326 326 326 328 327 327 326 326 325 324 321 320 320 317 315 314 316 315 311 313 314 314 315 316 317 317 319
325 328 331 329 327 327 326 327 326 325 325 327 326 328 326 326 325 326 322 321 321 322 324 322 320 317 317 316 315 314 312 312 314 312 309 306 308 311 314 315 315 315 316
321 325 328 326 327 326 326 323 324 326 327 326 325 324 323 322 321 319 319 320 320 319 319 318 317 317 315 314 314 313 311 310 313 314 312 303 303 305 311 314 315 315 317
325 325 324 327 325 325 325 324 325 326 323 323 322 319 317 314 315 317 317 317 318 319 320 318 318 317 315 314 314 315 311 311 311 311 312 312 312 306 304 310 313 316 316
323 325 324 327 328 326 324 322 320 320 321 320 319 317 315 315 317 316 315 315 315 317 317 318 317 316 316 315 315 314 313 313 311 310 310 310 309 309 306 303 309 313 315
323 325 326 327 326 323 320 318 317 318 319 318 317 317 317 315 314 312 310 311 312 313 313 313 312 312 310 310 311 311 312 313 313 313 313 311 309 307 307 305 307 307 311
322 323 323 323 319 318 318 319 320 319 317 317 317 317 315 313 311 310 310 309 308 308 308 308 308 307 308 308 308 308 308 309 310 311 310 310 310 311 309 307 307 307 311
321 322 322 319 319 319 319 320 320 317 316 317 312 314 313 312 311 310 308 308 306 306 307 306 306 306 307 307 307 306 307 307 308 308 309 310 310 310 310 310 308 306 308
319 318 318 318 319 319 319 319 315 311 311 312 311 311 310 309 307 306 307 306 306 306 306 306 306 306 306 306 306 305 305 307 307 309 309 308 310 310 310 311 311 308 303
317 317 316 316 318 317 315 312 310 308 311 311 309 308 307 306 306 305 305 305 304 304 305 305 305 305 306 306 305 304 305 305 307 309 310 309 309 310 309 310 310 309 309
314 313 312 313 316 314 311 310 310 309 308 307 306 305 305 305 305 305 305 305 304 304 304 304 305 305 305 305 304 304 304 305 306 308 308 309 310 309 309 309 310 309 310
314 312 312 311 310 310 309 308 307 307 307 306 305 304 304 304 303 303 305 305 304 304 304 304 304 305 305 305 304 304 306 306 306 309 308 308 310 310 310 309 309 308 310
312 312 311 310 310 309 309 307 305 305 306 306 305 304 303 302 302 303 305 305 303 304 304 303 303 305 305 306 306 306 306 307 307 307 308 308 309 309 310 310 310 310 310
312 311 310 309 308 308 308 306 304 304 305 304 303 302 302 302 303 305 304 304 304 304 303 303 304 305 306 307 308 307 307 307 307 308 307 308 309 310 310 310 310 311 310
312 311 310 307 304 304 305 305 304 305 304 303 303 302 303 303 305 304 304 304 304 304 302 302 304 306 307 308 309 308 307 306 305 306 307 309 312 315 314 312 312 311 310
311 310 307 306 304 304 304 305 304 304 304 303 302 303 305 305 305 304 304 304 303 303 302 303 303 305 306 305 306 308 307 306 305 305 307 312 313 315 315 316 314 312 311
308 305 305 305 304 304 305 304 304 304 304 303 304 305 306 305 305 305 304 303 303 302 302 302 303 304 306 303 303 305 307 306 303 307 308 313 313 313 311 310 310 311 310
304 305 305 304 305 305 304 304 304 304 304 304 304 305 306 305 305 304 304 303 302 302 301 302 303 304 305 303 302 303 307 307 308 309 311 312 312 310 308 311 315 314 314
304 304 305 305 305 304 305 304 304 303 303 304 304 305 306 305 304 304 304 304 302 302 302 303 303 304 305 300 300 302 306 309 310 312 312 312 311 301 299 311 312 310 311
306 306 306 305 304 305 304 303 304 303 303 305 306 307 307 306 305 305 304 304 302 302 303 303 304 304 303 299 299 299 307 308 307 308 309 306 307 299 297 312 311 310 311
306 307 305 304 305 306 304 303 304 304 307 308 308 307 307 306 306 306 305 304 303 302 302 302 303 303 302 302 299 297 305 308 308 307 308 309 303 300 296 302 311 310 311
306 306 304 304 306 306 305 304 303 307 309 309 307 307 307 306 307 305 306 304 303 301 301 301 301 302 302 300 301 299 297 302 308 309 309 308 301 300 299 301 298 299 304
305 307 307 307 307 307 306 305 307 308 308 307 307 305 307 307 305 305 305 304 303 301 301 300 300 301 302 302 300 299 298 300 306 310 308 301 299 298 301 300 299 302 313
305 307 308 308 308 310 309 307 307 310 310 308 307 307 307 306 306 304 304 304 304 302 301 301 300 301 301 301 304 306 306 302 305 303 306 304 303 300 303 305 308 311 313
305 305 304 303 302 300 296 296 296 301 301 306 307 307 306 306 307 305 305 303 306 304 304 303 303 302 301 302 300 303 306 306 302 299 304 306 307 307 308 310 311 311 313
300 300 300 296 294 295 293 292 293 293 292 295 299 302 304 306 306 306 305 299 299 298 296 296 301 304 299 296 294 294 295 294 294 299 304 304 305 306 308 309 310 310 310
Wind_Speed
1 1 3 4 3 4 3 4 7 5 4 3 3 2 1 1 2 3 5 5 5 6 5 3 4 4 4 5 3 3 3 3 3 1 1 2 4 5 4 4 5 5 7
4 4 3 3 3 2 2 6 6 5 3 3 2 2 1 2 1 3 2 3 5 4 2 2 3 2 3 4 3 2 2 2 3 2 1 2 3 3 4 5 5 7 4
5 3 3 3 1 2 3 5 5 4 3 4 3 2 2 1 0 2 2 3 5 4 5 4 4 4 2 3 4 5 6 5 3 6 3 1 4 2 1 4 5 6 5
5 4 2 3 3 2 4 5 5 4 4 5 3 3 2 0 0 2 2 3 4 5 4 5 4 4 4 4 3 4 4 5 5 1 3 2 2 3 6 1 3 7 7
3 5 3 3 2 1 2 4 5 6 5 4 3 2 1 1 1 2 4 4 4 5 5 5 5 5 3 4 5 5 6 7 5 4 3 3 4 4 5 7 4 4 5
3 5 4 4 3 2 3 4 5 2 2 2 2 3 2 4 3 2 3 3 3 4 5 6 5 5 5 6 7 7 7 6 5 4 5 5 4 4 5 6 6 7 5
5 4 4 4 3 3 3 3 2 1 2 2 1 1 0 4 4 2 1 4 3 3 5 4 5 4 5 6 6 6 7 7 5 6 6 5 7 4 3 3 5 6 4
6 7 7 4 5 5 5 4 4 3 3 2 1 2 4 3 2 1 1 3 2 3 4 5 5 6 7 6 6 5 5 6 6 7 6 4 6 5 5 3 3 6 3
10 7 6 6 6 6 6 6 6 3 2 3 3 4 4 3 2 3 2 3 4 4 5 6 7 7 8 7 7 5 8 6 7 7 6 4 4 4 5 5 5 4 3
6 6 6 6 4 4 4 4 4 5 5 5 4 3 3 3 3 3 5 5 5 4 6 7 7 8 7 6 6 6 7 6 6 5 6 5 4 5 4 5 5 6 5
7 7 6 5 4 4 3 3 4 6 6 5 3 3 4 5 4 4 5 5 4 5 5 7 8 9 8 7 7 9 9 7 7 6 6 7 4 4 4 4 5 6 6
7 6 6 6 6 6 4 5 5 6 6 5 4 5 5 5 5 5 5 3 5 5 5 7 8 9 8 7 8 10 8 5 7 7 5 7 4 7 6 4 7 7 7
5 6 5 6 6 6 5 6 5 6 6 5 4 5 6 6 6 6 4 4 5 5 6 6 8 9 8 7 8 9 10 8 7 7 7 8 7 8 6 6 6 7 6
7 6 6 7 6 6 6 7 6 6 5 5 5 5 7 7 6 5 5 5 4 5 6 6 8 8 8 7 5 7 9 10 9 9 8 9 9 10 8 7 8 7 6
8 9 8 6 5 5 6 5 6 6 5 6 5 7 7 6 6 5 5 6 5 5 5 6 7 7 5 5 7 7 9 10 11 9 8 8 11 16 12 5 6 6 6
10 8 6 5 6 7 6 6 7 7 5 6 7 6 6 5 6 6 6 6 6 6 5 6 6 7 5 9 12 10 9 10 10 9 7 6 6 5 1 7 8 7 7
5 4 6 8 7 8 7 8 9 5 6 7 7 7 6 6 7 6 5 6 7 5 7 7 6 8 7 10 11 11 7 9 10 8 6 4 2 3 3 4 3 2 6
5 6 6 6 8 4 6 7 6 6 6 7 8 7 6 7 6 6 7 6 4 6 6 7 6 7 8 9 11 10 7 7 8 9 6 3 2 1 4 4 4 2 2
8 7 7 6 4 7 8 7 6 6 6 10 10 9 6 7 7 8 9 6 4 5 6 5 6 7 8 8 10 8 6 6 5 2 1 2 1 4 5 3 2 1 3
3 6 7 4 6 9 7 6 9 6 9 11 11 9 6 7 8 10 9 5 4 6 4 7 5 8 8 7 7 7 4 5 3 2 3 2 2 2 4 2 2 1 0
7 5 5 7 10 8 5 8 6 10 14 9 8 7 7 8 9 8 6 5 6 5 7 6 5 6 6 6 6 2 2 5 3 2 2 2 4 1 3 3 2 2 2
6 5 4 7 9 6 1 7 7 10 6 6 9 10 10 7 6 8 9 7 5 6 8 5 6 4 5 6 7 3 4 6 5 4 3 3 4 5 3 1 3 7 5
6 2 2 6 8 6 3 5 9 9 8 5 11 11 11 8 8 8 9 6 5 6 7 5 5 6 4 4 7 8 4 5 4 4 5 8 7 4 6 5 6 6 3
8 9 10 14 13 12 14 14 15 13 13 12 12 10 8 9 7 5 6 6 6 7 7 6 6 6 4 5 5 5 4 4 3 3 3 4 4 6 6 4 3 2 3
14 14 13 14 14 15 15 16 17 17 14 12 10 11 8 8 8 6 6 6 10 10 8 8 6 5 6 7 9 8 6 5 2 3 3 2 3 4 4 3 2 2 3
14 14 15 14 13 13 13 14 14 15 14 13 11 11 11 10 8 7 9 10 17 15 17 18 10 7 13 8 10 11 8 7 7 3 3 4 5 5 4 4 3 3 5
Wind_Direction
119 48 104 147 176 216 177 116 116 113 113 109 139 148 131 318 21 31 282 288 282 265 274 268 250 227 229 275 232 287 247 267 220 214 311 290 270 257 291 289 299 295 285
68 56 98 146 182 189 127 91 101 112 112 108 105 101 97 73 51 263 12 3 340 317 322 284 281 314 299 276 276 228 305 268 206 196 68 298 313 284 289 304 311 276 296
97 102 169 176 174 165 66 94 59 63 95 103 81 57 45 38 328 21 318 347 1 9 38 25 15 358 351 316 310 288 251 241 211 206 166 161 244 300 270 287 299 311 302
104 133 155 164 160 83 87 89 82 86 83 94 89 90 129 227 204 266 320 347 5 20 23 16 19 358 35 319 270 265 269 291 241 262 240 214 244 275 297 171 295 285 293
131 140 164 115 86 107 111 85 80 67 65 90 120 132 93 201 235 8 1 359 356 1 358 1 347 335 320 300 282 274 230 236 238 167 223 210 225 227 251 302 304 282 261
114 109 101 115 146 102 73 75 89 81 69 101 141 169 59 349 2 12 16 353 344 334 332 339 344 346 322 307 307 306 294 279 270 262 246 223 210 197 236 255 275 274 290
143 132 152 160 159 132 136 146 129 266 62 157 159 105 90 131 125 115 359 323 330 321 318 337 324 313 299 300 300 294 288 287 269 247 237 221 237 215 226 240 269 278 299
165 180 187 181 177 182 199 207 187 147 160 151 179 140 148 155 121 158 252 283 266 295 319 309 309 308 303 288 281 280 281 278 266 252 237 232 222 211 216 225 224 277 256
184 185 192 196 194 196 199 185 163 163 196 174 155 168 170 144 229 273 271 286 324 312 309 314 307 304 284 283 287 289 292 286 275 262 253 230 241 208 220 218 216 238 286
181 183 203 201 196 198 178 150 154 168 170 172 185 186 212 244 265 287 299 305 297 301 314 302 298 288 292 302 307 300 288 283 275 275 273 249 243 234 219 210 219 226 232
188 190 201 190 185 180 173 199 179 167 167 183 197 226 246 255 272 279 278 274 293 304 296 302 308 312 311 315 319 302 292 284 291 282 274 266 249 247 230 221 220 231 217
196 194 197 182 183 194 170 202 171 170 193 196 203 234 265 267 278 274 275 274 284 290 301 310 309 303 309 317 309 300 286 290 303 302 298 280 269 250 246 226 229 227 221
203 212 212 214 201 202 193 186 203 205 207 203 219 252 264 267 269 274 265 274 286 304 305 310 303 308 310 326 318 307 300 305 287 283 281 284 285 274 256 242 238 226 221
200 209 224 223 217 213 201 191 213 220 217 221 230 250 262 263 265 264 260 273 286 288 298 298 297 302 311 318 312 305 308 308 303 295 288 277 265 257 257 243 239 230 226
203 212 219 221 224 206 194 198 224 222 216 237 247 253 262 267 268 249 260 274 279 276 281 291 299 301 303 300 304 298 298 296 297 292 280 274 269 251 250 237 234 219 218
218 213 213 202 206 203 204 214 225 232 206 235 244 252 263 266 243 245 261 273 279 283 281 292 294 301 298 293 294 301 300 300 294 293 296 308 342 40 39 226 234 213 202
221 190 201 204 197 207 204 218 226 224 222 234 248 253 262 255 239 247 264 267 274 281 284 289 295 291 293 290 296 298 303 300 293 284 290 302 7 25 17 4 344 236 231
167 194 205 207 219 214 225 237 232 232 238 249 251 250 247 249 246 252 258 267 262 273 280 288 292 288 288 292 301 309 313 292 276 278 262 244 276 14 349 340 345 10 286
194 200 197 201 203 218 229 222 239 237 240 250 249 249 234 247 244 248 255 259 258 276 268 263 291 286 290 305 312 328 315 293 319 323 194 215 236 354 342 306 303 349 11
193 195 202 202 225 243 214 217 242 227 245 248 247 247 232 234 242 245 248 247 230 260 279 289 268 274 282 299 320 342 308 296 304 314 321 296 282 310 323 193 155 88 317
226 224 199 219 231 240 178 235 248 245 246 248 246 243 232 233 235 246 232 239 256 268 274 270 278 274 265 284 285 358 306 284 294 316 304 256 266 296 76 86 135 208 193
240 253 307 306 312 13 319 279 273 295 311 280 269 270 269 246 236 223 248 238 239 261 274 271 287 259 269 246 267 265 225 275 274 270 277 283 295 315 348 249 254 253 214
16 52 233 282 342 329 264 281 316 323 310 271 287 272 266 243 228 228 244 241 229 236 260 256 268 279 268 260 238 261 251 283 246 256 270 286 289 281 300 241 270 203 211
11 24 42 48 37 29 30 17 5 346 353 354 319 300 291 286 266 240 236 252 250 243 244 248 251 259 254 251 240 232 235 244 248 273 282 306 274 259 265 293 213 232 221
41 38 40 43 39 35 21 12 4 356 1 358 349 344 342 319 304 272 251 228 235 230 249 250 237 233 248 242 208 206 212 213 206 292 257 261 235 249 256 253 254 247 197
40 44 45 41 30 26 25 16 8 1 360 352 357 354 347 349 334 327 313 254 248 252 236 241 227 249 238 206 200 205 200 174 162 203 232 238 241 233 245 259 272 239 207